Location: Bessas
(44.3433°N, 4.3026°E)
Time: 03:12:12
(UTC+00:00)

Daily predictions for brighter satellites

Satellite Brightness Start Highest point End
(mag) Time Altitude Azimuth Time Altitude Azimuth Time Altitude Azimuth
Cosmos 2278 Rocket 4.4 00:51:01 21° NNE 00:51:01 21° NNE 00:52:47 10° NNE
SL-16 R/B 4.1 00:53:22 29° N 00:53:22 29° N 00:56:30 10° N
CZ-2D R/B 4.3 01:06:44 10° NNE 01:08:34 21° NNE 01:08:34 21° NNE
ATLAS 5 CENTAUR R/B 4.5 01:18:57 15° NNE 01:18:57 15° NNE 01:20:02 10° NNE
ATLAS 3B R/B 4.4 01:19:23 22° E 01:19:23 22° E 01:23:10 10° ENE
ADEOS II 3.4 01:52:44 10° NNE 01:56:26 37° ENE 01:56:26 37° ENE
CENTAUR R/B 3.4 01:59:00 39° ESE 01:59:00 39° ESE 02:04:42 10° NE
Cosmos 2369 Rocket 3.1 02:07:32 45° ENE 02:07:32 45° ENE 02:12:05 10° NE
Lacrosse 5 3.9 02:08:52 21° N 02:10:11 23° NNE 02:14:11 10° ENE
Resurs 1-4 Rocket 3.7 02:07:38 10° N 02:10:11 27° NNW 02:10:11 27° NNW
USA 238 DEB 3.8 02:21:37 63° NNW 02:21:37 63° NNW 02:28:11 10° NNE
USA 238 3.8 02:21:42 64° NNW 02:21:42 64° NNW 02:28:17 10° NNE
Atlas Centaur 2 4.3 02:29:29 18° SSE 02:29:29 18° SSE 02:32:10 10° SE
Cosmos 2278 Rocket 4.4 02:32:51 14° NW 02:32:51 14° NW 02:35:14 10° N
SL-16 R/B 4.5 02:38:28 15° NW 02:38:28 15° NW 02:39:40 10° NW
ARIANE 5 R/B 3.0 02:32:59 10° NNE 02:36:58 55° N 02:36:58 55° N
SL-4 R/B 4.2 02:41:21 18° E 02:41:21 18° E 02:42:30 10° E
Cosmos 1943 Rocket 2.2 02:49:36 66° NNW 02:49:36 66° NNW 02:54:46 10° NNE
CZ-2D R/B 3.8 02:47:30 10° N 02:49:54 20° NW 02:49:54 20° NW
Nadezhda 4 Rocket 3.8 02:52:12 72° SW 02:52:45 79° W 02:58:54 10° N
Unknown 4.4 02:55:26 49° NE 02:55:26 49° NE 02:58:32 10° NE
Unknown 4.4 02:55:59 49° NE 02:55:59 49° NE 02:59:07 10° NE
Cosmos 2344 3.6 02:54:20 52° W 02:56:05 65° NW 03:04:23 10° NE
Unknown 4.3 02:58:32 52° NE 02:58:32 52° NE 03:01:47 10° NE
Cosmos 1782 4.2 03:01:20 32° N 03:01:20 32° N 03:03:33 10° N
Unknown 4.2 03:01:48 55° NNE 03:01:48 55° NNE 03:05:10 10° NE
ATLAS 5 CENTAUR R/B 4.3 03:00:47 10° NNW 03:02:04 11° NNW 03:03:23 10° N
Unknown 4.1 03:03:22 56° NNE 03:03:22 56° NNE 03:06:48 10° NE
Unknown 4.1 03:04:59 57° NNE 03:04:59 57° NNE 03:08:29 10° NE
NOSS 3-2 (A) 4.0 03:04:27 39° WNW 03:05:18 41° NW 03:11:35 10° NNE
Unknown 4.0 03:06:36 58° NNE 03:06:36 58° NNE 03:10:10 10° NE
ATLAS 3B R/B 2.5 03:06:40 54° WSW 03:08:11 73° NW 03:14:49 10° NE
Lacrosse 5 rocket 3.2 03:11:37 21° SSE 03:11:37 21° SSE 03:13:12 10° SSE
NOSS 3-2 (C) 3.6 03:08:07 49° WNW 03:09:06 54° NW 03:15:38 10° NNE
Unknown 4.0 03:09:48 59° N 03:09:48 59° N 03:13:29 10° NE
Unknown 4.0 03:11:27 58° N 03:11:27 58° N 03:15:10 10° NE
Cosmos 1400 Rocket 2.9 03:11:55 69° ENE 03:11:55 69° ENE 03:15:31 10° NNE
Unknown 3.9 03:12:58 59° N 03:12:58 59° N 03:16:47 10° NE
Unknown 3.9 03:14:32 59° N 03:14:32 59° N 03:18:24 10° NE
Unknown 4.1 03:16:03 48° NNW 03:16:03 48° NNW 03:19:47 10° NE
Unknown 3.9 03:16:25 57° NNW 03:16:25 57° NNW 03:20:23 10° NE
Unknown 3.8 03:17:37 60° NNW 03:17:37 60° NNW 03:21:37 10° NE
Spot 2 4.3 03:13:01 10° NNE 03:17:37 70° ESE 03:18:57 43° S
Cosmos 783 Rocket 4.5 03:16:43 45° S 03:18:20 81° ESE 03:23:36 10° NNE
Cosmos 2263 4.2 03:17:42 54° WSW 03:18:40 64° WNW 03:24:15 10° NNE
Aureole 2 Rocket 4.1 03:19:49 23° E 03:19:49 23° E 03:21:45 10° NE
Unknown 3.8 03:20:47 58° NNW 03:20:49 58° NNW 03:24:55 10° NE
Unknown 3.8 03:22:24 56° NW 03:22:30 56° NNW 03:26:35 10° NE
IDEFIX/ARIANE 42P 3.1 03:17:42 10° NNE 03:22:56 59° E 03:27:33 13° S
RUBIN 8/PSLV 4.5 03:19:25 10° NNE 03:23:49 90° WSW 03:24:52 52° SSW
Cosmos 1340 4.4 03:20:47 10° N 03:24:14 33° ENE 03:27:41 10° SE
Unknown 3.9 03:24:10 51° NW 03:24:22 52° NNW 03:28:25 10° NE
Unknown 4.0 03:25:26 49° NW 03:25:38 49° NNW 03:29:39 10° NE
H-2A R/B 3.5 03:22:11 10° NNE 03:25:49 40° E 03:28:28 17° SSE
Unknown 3.9 03:25:36 53° NW 03:25:50 54° NNW 03:29:54 10° NE
Cosmos 1862 Rocket 3.8 03:24:47 29° S 03:27:00 71° E 03:31:30 10° NNE
Unknown 3.9 03:27:10 51° NW 03:27:29 52° NNW 03:31:33 10° NE
Iridium 4 Rocket 2.9 03:26:11 44° S 03:27:36 85° W 03:31:52 10° N
Meteor 1-5 Rocket 4.3 03:22:55 10° N 03:28:24 76° E 03:34:02 10° SSE
USA 81 4.2 03:23:44 12° S 03:28:37 72° E 03:33:54 10° N
Cosmos 2084 Rocket 4.0 03:24:49 10° NNW 03:29:11 58° NE 03:33:28 10° SE
Unknown 4.0 03:30:23 48° NW 03:30:50 50° NNW 03:34:53 10° NE
Cosmos 2026 Rocket 3.9 03:26:46 18° S 03:31:39 86° W 03:38:04 10° N
Unknown 4.0 03:31:59 46° NW 03:32:30 49° NNW 03:36:33 10° NE
Unknown 4.0 03:33:35 44° NW 03:34:11 48° NNW 03:38:12 10° NE
Unknown 4.1 03:35:11 43° NW 03:35:51 47° NNW 03:39:53 10° NE
CZ-2C R/B 3.8 03:32:29 10° N 03:35:23 32° NW 03:35:23 32° NW
Cosmos 1536 3.8 03:33:09 10° N 03:37:00 47° ENE 03:40:50 10° SSE
ADEOS II 3.1 03:32:55 10° N 03:37:14 27° WNW 03:37:22 27° WNW
Timation 2 Rocket 3.8 03:31:16 10° NNW 03:37:21 90° NNW 03:43:20 10° SSE
Cosmos 1346 Rocket 3.6 03:33:38 10° N 03:37:40 53° ENE 03:41:40 10° SSE
Unknown 4.2 03:38:23 40° WNW 03:39:12 45° NNW 03:43:12 10° NE
Unknown 4.4 03:40:15 35° WNW 03:41:11 41° NNW 03:45:08 10° NE
Meteor 2-9 4.5 03:37:13 10° NNW 03:42:38 72° W 03:47:58 10° S
Unknown 4.4 03:41:48 35° WNW 03:42:48 41° NNW 03:46:45 10° NE
Unknown 4.3 03:41:58 36° WNW 03:42:57 42° NNW 03:46:55 10° NE
Cosmos 1656 Rocket 3.7 03:41:58 32° SW 03:44:36 66° WNW 03:50:15 10° NNE
Unknown 4.3 03:44:45 34° WNW 03:45:52 42° NNW 03:49:50 10° NE
CENTAUR R/B 3.1 03:46:12 29° W 03:49:02 46° NW 03:55:53 10° NNE
Unknown 4.4 03:47:57 32° WNW 03:49:13 40° NNW 03:53:09 10° NE
MSX 4.1 03:44:19 10° NNE 03:50:05 69° ESE 03:55:47 10° S
Unknown 4.4 03:49:33 30° WNW 03:50:52 40° NNW 03:54:49 10° NE
Cosmos 2369 Rocket 3.2 03:49:20 25° W 03:50:53 29° NW 03:55:47 10° N
CZ-2C R/B 3.5 03:46:23 10° NNE 03:51:06 45° E 03:55:55 10° S
Unknown 4.5 03:51:09 29° WNW 03:52:33 39° NNW 03:56:29 10° NE
Cosmos 1655 Rocket 4.3 03:47:06 10° S 03:53:16 72° E 03:59:32 10° NNE
Lacrosse 5 2.4 03:49:01 10° NW 03:54:03 60° NE 03:59:02 10° ESE
Unknown 4.5 03:52:46 28° WNW 03:54:14 38° NNW 03:58:09 10° NE
Cosmos 2297 Rocket 4.4 03:50:57 10° N 03:55:40 26° NE 04:00:21 10° ESE
Cosmos 1538 Rocket 4.1 03:52:07 10° SSW 03:57:15 77° ESE 04:02:26 10° NNE
Cosmos 1908 Rocket 3.7 03:53:00 10° N 03:57:21 73° E 04:01:41 10° SSE
PSLV R/B 4.0 03:53:31 10° S 03:57:35 53° W 04:01:37 10° NNW
Cosmos 44 3.8 03:55:43 29° W 03:57:39 42° NW 04:02:12 10° NNE
CZ-4B R/B 4.3 03:53:46 10° NNE 03:58:07 44° E 04:02:23 10° S
S3M 4.1 03:53:51 10° N 04:00:04 79° E 04:06:20 10° S
Cosmos 1500 3.0 03:57:14 10° NNW 04:00:56 63° W 04:04:39 10° S
PSLV R/B 3.7 03:59:47 10° N 04:04:03 52° WNW 04:07:00 19° SW
Cosmos 1733 Rocket 3.6 04:02:06 10° NNW 04:06:10 35° W 04:10:07 10° SSW
SeaSat 1 2.4 04:04:53 10° NNE 04:09:49 71° WNW 04:14:09 13° SW
Atlas Centaur 2 4.1 04:12:06 14° SW 04:15:15 19° SSW 04:20:21 10° SSE
Meteor 1-27 Rocket 3.8 04:10:26 10° SSW 04:16:14 59° WNW 04:21:57 10° N
ARIANE 5 R/B 4.4 04:14:27 10° NNW 04:16:22 12° NW 04:17:18 12° WNW
SL-4 R/B 2.2 04:17:01 23° W 04:18:40 37° SW 04:22:04 10° SSE
ADEOS 4.1 04:16:01 10° N 04:20:52 40° WNW 04:25:28 11° SW
COSMOS 2441 4.4 04:18:14 10° N 04:23:06 67° WNW 04:27:57 10° SSW
CZ-4B R/B 3.7 04:21:50 10° NNE 04:25:32 82° ESE 04:29:09 10° S
Cosmos 1812 3.5 04:23:31 15° SW 04:26:07 31° WNW 04:29:35 10° N
ATLAS CENTAUR R/B 4.0 04:24:12 10° NNW 04:27:45 22° NE 04:31:05 10° E
PAYLOAD A 3.8 04:23:51 10° N 04:28:35 66° WNW 04:33:13 10° SSW
Cosmos 1743 4.0 04:24:51 10° N 04:28:38 46° ENE 04:32:23 10° SSE
Cosmos 1315 Rocket 3.5 04:27:31 10° SW 04:31:15 35° WNW 04:35:05 10° N
Meteor 1-11 Rocket 4.2 04:26:22 10° NNW 04:31:26 36° W 04:36:25 10° SSW
Cosmos 1943 Rocket 4.1 04:31:16 10° WNW 04:34:03 14° NW 04:36:51 10° N
BREEZE-M DEB (TANK) 3.1 04:29:36 11° W 04:38:30 72° N 04:41:35 10° E
Cosmos 2266 Rocket 3.9 04:32:44 10° S 04:38:50 80° W 04:44:55 10° N
Cosmos 1782 Rocket 3.5 04:35:50 10° NNW 04:40:12 69° W 04:44:34 10° S
USA 215 3.3 04:34:07 10° NE 04:40:42 85° SE 04:47:15 10° SW
Shenzhou-11 Module 4.4 04:39:03 10° S 04:40:45 15° SSE 04:42:27 10° ESE
SKYMED 2 4.2 04:36:53 10° SSE 04:41:09 60° ENE 04:45:26 10° N
Cosmos 883 Rocket 4.5 04:35:01 10° N 04:41:11 85° W 04:47:18 10° S
Unknown 3.6 04:45:48 10° NW 04:48:35 46° NNE 04:51:22 10° ESE
ALOS 4.1 04:44:37 10° NNE 04:48:57 36° E 04:53:15 10° SSE
Meteor PRIRODA 3.6 04:48:41 10° N 04:52:22 68° WNW 04:56:03 10° SSW
Cosmos 1703 Rocket 4.1 04:48:44 10° SW 04:52:52 39° WNW 04:57:02 10° N
Aureole 2 Rocket 4.0 04:52:37 10° W 04:53:43 12° WNW 04:54:49 10° NW
Cosmos 2292 Rocket 3.8 04:48:53 10° S 04:54:09 85° E 04:58:08 10° N
PSLV R/B 3.8 04:51:32 10° N 04:55:34 73° WNW 04:59:28 10° SSW
Cosmos 1666 3.2 04:52:11 10° NNW 04:55:39 35° W 04:59:06 10° SSW
Sich 1 Rocket 3.7 04:51:53 10° NNW 04:56:15 58° W 05:00:40 10° S
Meteor 1-31 Rocket 3.3 04:53:36 10° N 04:57:17 40° WNW 05:00:55 10° SW
BREEZE-M DEB (TANK) 3.2 04:55:52 10° W 04:59:26 34° NNW 05:01:37 10° NE
Cosmos 1340 4.2 04:57:06 10° NW 04:59:35 17° W 05:02:04 10° SW
ATLAS 3B R/B 4.0 04:54:56 10° WNW 05:00:01 23° NNW 05:05:06 10° NNE
Okean 1 3.3 04:56:51 10° SSW 05:00:46 69° W 05:04:45 10° N
Cosmos 2221 Rocket 3.6 04:56:27 10° S 05:00:51 84° W 05:05:18 10° N
Cosmos 2112 Rocket 4.2 04:55:57 10° SSW 05:01:13 81° ESE 05:06:29 10° NNE
